EHI
0 0 0 0 0 0 0 0 0 0 0 0 0 0 0 0 0 0 0 0 0 0 0 0 0 0 0 0 0 0 0 0 0 0 0 0 0 0 0 0 0 0 0
0 0 0 0 0 0 0 0 0 0 0 0 0 0 0 0 0 0 0 0 0 0 0 0 0 0 0 0 0 0 0 0 0 0 0 0 0 0 0 0 0 0 0
0 0 0 0 0 0 0 0 0 0 0 0 0 0 0 0 0 0 0 0 0 0 0 0 0 0 0 0 0 0 0 0 0 0 0 0 0 0 0 0 0 0 0
0 0 0 0 0 0 0 0 0 0 0 0 0 0 0 0 0 0 0 0 0 0 0 0 0 0 0 0 0 0 0 0 0 0 0 0 0 0 0 0 0 0 0
0 0 0 0 0 0 0 0 0 0 0 0 0 0 0 0 0 0 0 0 0 0 0 0 0 0 0 0 0 0 0 0 0 0 0 0 0 0 0 0 0 0 0
0 0 0 0 0 0 0 0 0 0 0 0 0 0 0 0 0 0 0 0 0 0 0 0 0 0 0 0 0 0 0 0 0 0 0 0 0 0 0 0 0 0 0
0 0 0 0 0 0 0 0 0 0 0 0 0 0 0 0 0 0 0 0 0 0 0 0 0 0 0 0 0 0 0 0 0 0 0 0 0 0 0 0 0 0 0
0 0 0 0 0 0 0 0 0 0 0 0 0 0 0 0 0 0 0 0 0 0 0 0 0 0 0 0 0 0 0 0 0 0 0 0 0 0 0 0 0 0 0
0 0 0 0 0 0 0 0 0 0 0 0 0 0 0 0 0 0 0 0 0 0 0 0 0 0 0 0 0 0 0 0 0 0 0 0 0 0 0 0 0 0 0
0 0 0 0 0 0 0 0 0 0 0 0 0 0 0 0 0 0 0 0 0 0 0 0 0 0 0 0 0 0 0 0 0 0 0 0 0 0 0 0 0 0 0
0 0 0 0 0 0 0 0 0 0 0 0 0 0 0 0 0 0 0 0 0 0 0 0 0 0 0 0 0 0 0 0 0 0 0 0 0 0 0 0 0 0 0
0 0 0 0 0 0 0 0 0 0 0 0 0 0 0 0 0 0 0 0 0 0 0 0 0 0 0 0 0 0 0 0 0 0 0 0 0 0 0 0 0 0 0
0 0 0 0 0 0 0 0 0 0 0 0 0 0 0 0 0 0 0 0 0 0 0 0 0 0 0 0 0 0 0 0 0 0 0 0 0 0 0 0 0 0 0
0 0 0 0 0 0 0 0 0 0 0 0 0 0 0 0 0 0 0 0 0 0 0 0 0 0 0 0 0 0 0 0 0 0 0 0 0 0 0 0 0 0 0
0 0 0 0 0 0 0 0 0 0 0 0 0 0 0 0 0 0 0 0 0 0 0 0 0 0 0 0 0 0 0 0 0 0 0 0 0 0 0 0 0 0 0
0 0 0 0 0 0 0 0 0 0 0 0 0 0 0 0 0 0 0 0 0 0 0 0 0 0 0 0 0 0 0 0 0 0 0 0 0 0 0 0 0 0 0
0 0 0 0 0 0 0 0 0 0 0 0 0 0 0 0 0 0 0 0 0 0 0 0 0 0 0 0 0 0 0 0 0 0 0 0 0 0 0 0 0 0 0
0 0 0 0 0 0 0 0 0 0 0 0 0 0 0 0 0 0 0 0 0 0 0 0 0 0 0 0 0 0 0 0 0 0 0 0 0 0 0 0 0 0 0
0 0 0 0 0 0 0 0 0 0 0 0 0 0 0 0 0 0 0 0 0 0 0 0 0 0 0 0 0 0 0 0 0 0 0 0 0 0 0 0 0 0 0
0 0 0 0 0 0 0 0 0 0 0 0 0 0 0 0 0 0 0 0 0 0 0 0 0 0 0 0 0 0 0 0 0 0 0 0 0 0 0 0 0 0 0
0 0 0 0 0 0 0 0 0 0 0 0 0 0 0 0 0 0 0 0 0 0 0 0 0 0 0 0 0 0 0 0 0 0 0 0 0 0 0 0 0 0 0
0 0 0 0 0 0 0 0 0 0 0 0 0 0 0 0 0 0 0 0 0 0 0 0 0 0 0 0 0 0 0 0 0 0 0 0 0 0 0 0 0 0 0
0 0 0 0 0 0 0 0 0 0 0 0 0 0 0 0 0 0 0 0 0 0 0 0 0 0 0 0 0 0 0 0 0 0 0 0 0 0 0 0 0 0 0
0 0 0 0 0 0 0 0 0 0 0 0 0 0 0 0 0 0 0 0 0 0 0 0 0 0 0 0 0 0 0 0 0 0 0 0 0 0 0 0 0 0 0
0 0 0 0 0 0 0 0 0 0 0 0 0 0 0 0 0 0 0 0 0 0 0 0 0 0 0 0 0 0 0 0 0 0 0 0 0 0 0 0 0 0 0
0 0 0 0 0 0 0 0 0 0 0 0 0 0 0 0 0 0 0 0 0 0 0 0 0 0 0 0 0 0 0 0 0 0 0 0 0 0 0 0 0 0 0
Wind_Speed
12 14 15 16 16 17 18 19 18 17 18 18 18 19 19 19 19 18 17 16 16 15 14 14 15 14 11 11 11 11 12 12 16 17 15 15 19 19 17 17 17 19 18
9 11 14 14 15 17 18 18 17 18 18 18 18 19 19 19 19 19 18 17 17 17 16 15 16 12 15 13 11 13 13 13 15 19 17 16 20 19 19 19 17 16 17
8 10 12 13 15 16 17 16 17 17 17 18 18 19 19 18 18 19 18 17 17 17 16 16 16 15 15 13 14 13 12 12 14 16 18 16 15 15 18 18 19 17 17
8 10 12 13 14 15 15 15 16 16 17 18 18 18 18 17 17 17 17 16 16 16 16 16 16 15 16 15 13 14 14 14 15 15 16 15 15 16 15 14 15 14 15
9 10 12 12 12 12 13 14 14 16 17 17 17 18 18 16 15 17 16 16 16 16 15 16 16 19 20 17 13 13 14 13 13 13 15 15 14 14 13 13 15 15 16
10 11 11 11 11 12 13 13 14 15 16 17 18 18 19 15 22 28 20 16 16 16 15 15 16 19 21 25 26 24 21 16 15 15 14 16 17 16 15 14 15 16 17
10 11 11 11 11 12 12 13 14 15 16 17 17 18 19 20 27 29 29 18 17 16 15 14 12 13 18 14 18 23 22 25 24 18 18 18 18 17 17 18 17 17 18
11 11 10 10 12 12 12 14 14 13 14 15 16 18 19 20 27 29 29 22 17 16 15 15 14 14 13 14 13 14 15 16 17 14 14 16 16 16 15 16 17 18 18
10 11 11 10 12 12 13 14 13 13 14 14 15 17 19 19 26 28 27 15 15 16 15 15 15 15 18 20 15 15 16 14 17 21 23 22 25 25 20 13 14 14 15
12 13 13 12 12 13 13 13 12 12 13 13 14 16 18 18 23 27 28 13 14 13 12 13 19 19 19 19 14 14 15 13 11 13 15 17 16 16 19 13 12 13 14
14 14 14 13 13 13 12 11 11 11 12 13 14 14 16 18 20 26 28 14 13 12 10 10 11 18 20 20 18 13 15 14 12 12 11 11 11 9 10 10 10 11 13
15 15 15 14 11 10 11 11 10 11 12 12 13 13 12 14 18 21 27 25 19 13 11 9 10 16 17 19 15 15 18 16 9 9 10 10 10 10 9 10 11 12 13
15 15 15 14 12 10 10 10 9 9 9 10 10 11 10 10 13 23 25 26 26 15 10 14 14 16 15 13 14 16 14 9 8 9 10 10 10 10 10 10 11 11 13
16 15 14 13 12 10 8 8 8 9 9 10 10 10 10 10 10 11 12 15 20 17 12 13 16 16 12 12 11 10 7 7 8 9 10 10 9 9 9 9 10 10 10
15 14 13 11 11 10 9 8 10 10 11 11 10 10 10 10 13 17 13 11 11 10 9 7 7 7 8 7 7 7 7 7 8 8 8 9 9 9 9 9 9 9 10
14 13 11 10 9 9 9 9 13 15 18 20 20 16 12 15 15 19 22 20 19 17 12 8 8 8 8 7 7 7 7 7 7 7 8 8 9 9 10 9 9 9 10
14 13 11 10 10 9 9 9 9 10 15 19 21 22 21 18 18 18 20 21 20 18 11 9 8 8 7 7 7 7 7 7 6 7 8 8 8 9 9 10 9 9 10
14 14 12 10 10 9 9 9 8 9 8 8 12 18 21 21 20 18 18 16 12 13 9 9 8 7 7 6 6 6 6 6 6 7 7 8 8 9 9 9 9 10 10
13 11 10 10 10 9 9 8 8 9 9 8 7 8 15 17 19 19 17 11 9 9 9 8 7 7 6 6 6 6 6 6 7 7 7 8 8 8 9 9 10 13 12
11 15 15 11 10 9 8 8 8 8 8 8 7 6 6 9 9 10 11 9 8 8 8 7 7 6 6 6 6 6 6 6 7 7 7 7 8 8 9 11 10 10 10
11 12 16 12 9 9 8 8 7 7 7 7 6 7 10 7 8 9 9 9 8 8 7 7 6 6 6 5 5 6 7 7 6 7 7 7 8 8 8 9 10 10 10
10 10 9 10 9 8 8 7 7 7 7 8 6 6 12 8 6 7 7 7 7 6 6 6 5 5 5 5 5 6 6 7 7 7 7 7 7 8 8 9 9 9 9
11 11 10 9 8 10 9 7 6 6 6 6 6 5 6 6 6 6 6 6 6 5 5 5 5 5 5 5 5 6 6 7 7 7 8 8 8 8 8 9 11 11 11
11 11 10 9 8 7 7 6 6 6 6 6 5 5 6 6 6 6 6 5 5 5 5 5 5 6 7 5 5 5 6 7 8 7 9 8 8 8 8 9 10 12 11
10 10 10 9 8 7 7 6 5 5 5 5 5 5 5 5 5 5 5 5 6 5 6 5 4 5 7 8 7 6 9 12 12 8 6 6 8 9 9 10 10 11 11
10 9 8 8 7 7 6 5 5 5 5 5 5 5 5 5 5 5 5 5 5 5 5 4 5 6 6 6 8 9 11 12 13 11 6 5 7 8 9 8 11 10 11
Wind_Direction
234 231 231 232 231 231 232 233 231 229 223 220 216 213 210 207 204 205 208 208 212 217 219 226 232 235 240 242 244 246 249 252 265 276 280 285 286 284 283 280 279 279 279
246 240 238 238 235 233 234 234 231 229 225 222 218 216 213 208 205 205 208 209 211 217 220 224 232 234 237 242 245 247 250 254 261 274 281 283 283 284 284 283 282 279 278
260 250 247 242 239 238 238 236 232 230 227 222 219 217 214 209 206 206 207 210 212 217 219 224 230 233 238 241 243 248 252 256 259 267 276 280 282 283 285 283 283 281 281
271 260 256 253 248 245 243 238 233 229 227 223 221 220 215 211 207 205 206 210 213 218 221 225 229 231 236 241 245 250 254 258 261 265 272 277 281 285 286 287 288 286 285
281 269 266 265 260 253 248 242 236 232 229 226 223 221 216 211 206 202 204 208 213 219 222 226 230 232 236 239 241 247 251 257 264 269 273 279 284 289 290 292 291 291 286
289 281 279 274 266 257 250 243 237 233 229 225 223 221 218 213 211 208 203 209 214 219 223 227 232 238 242 247 251 254 256 262 268 272 278 282 287 291 295 294 292 291 290
292 286 284 278 270 263 255 246 240 235 230 226 224 222 221 217 214 213 210 208 214 218 221 226 231 234 239 243 255 262 267 269 268 271 277 281 288 291 294 292 288 287 287
294 288 283 278 274 270 260 251 245 238 233 229 226 225 225 222 218 216 215 214 219 222 223 226 232 237 237 240 247 255 259 263 265 266 269 275 278 283 283 284 288 287 284
291 293 292 283 278 274 264 256 249 241 237 231 228 226 225 224 220 218 216 216 220 225 226 227 233 239 242 246 250 257 263 265 267 268 270 273 278 285 287 288 287 287 287
306 304 301 293 282 276 270 264 254 244 240 235 232 228 227 226 221 218 216 215 219 222 224 227 232 238 243 247 249 257 266 271 274 278 276 278 280 282 284 280 280 282 285
309 305 300 294 287 280 276 266 256 246 241 236 236 231 228 227 224 219 216 211 215 218 222 224 227 235 243 250 253 257 266 276 280 279 278 279 279 276 274 272 269 271 275
307 303 299 296 291 282 274 268 256 246 242 238 236 234 229 226 225 222 219 217 213 216 221 225 229 234 243 252 258 263 272 279 279 278 280 282 284 286 287 284 278 271 266
304 301 301 299 293 284 275 268 258 244 240 238 234 233 229 221 221 221 220 221 220 216 221 227 232 238 246 254 259 267 274 273 273 276 279 283 287 290 290 287 283 277 272
302 302 302 300 296 288 274 263 254 245 239 236 234 233 229 222 215 212 214 220 223 223 226 230 234 242 245 253 260 264 262 263 270 274 279 285 289 290 289 291 293 294 289
303 302 301 296 293 289 276 262 255 246 240 236 236 234 231 226 218 208 202 206 205 209 206 213 220 228 235 240 246 253 257 261 265 270 278 284 288 290 292 295 292 292 289
303 302 301 299 295 288 284 276 255 250 252 246 242 240 239 239 234 219 213 211 207 204 203 213 220 226 235 243 250 255 257 261 268 274 278 282 287 291 294 295 293 292 291
299 299 298 294 291 288 283 279 281 266 251 249 246 243 240 236 235 225 216 211 208 203 207 215 221 227 234 241 247 254 260 266 273 273 276 281 286 290 294 296 297 295 293
299 296 293 291 289 286 281 276 272 273 272 258 246 244 241 236 230 222 214 204 205 205 211 217 222 227 233 238 244 250 259 266 267 270 275 280 284 289 292 295 297 297 297
298 294 294 292 288 283 279 274 267 263 262 263 255 246 237 232 224 216 206 201 198 202 207 215 221 226 230 235 242 249 257 264 269 274 276 280 283 287 290 294 296 298 298
296 294 296 294 290 285 278 271 265 260 257 253 248 242 230 217 208 201 199 196 198 204 207 212 217 221 226 231 238 245 254 261 268 269 275 281 283 285 289 293 295 297 296
297 296 297 296 291 287 280 272 265 258 252 248 243 235 226 217 203 195 191 193 198 203 205 209 213 216 222 227 235 244 253 262 267 272 276 282 286 288 290 292 294 294 296
295 294 294 292 289 285 279 271 264 255 248 244 240 232 228 221 206 195 193 196 200 201 200 203 209 214 219 225 234 245 254 262 269 273 278 283 286 287 290 293 296 299 299
296 294 292 290 288 286 281 268 259 250 242 236 229 219 218 214 202 195 194 193 188 187 189 197 207 214 219 227 235 244 255 264 271 277 282 285 287 289 292 294 297 300 301
295 294 294 293 290 284 277 269 257 244 235 227 218 212 212 208 197 193 189 182 180 183 187 196 209 219 226 236 244 248 255 265 274 274 275 279 286 290 292 294 295 299 300
296 295 294 294 292 287 280 269 252 236 225 217 211 205 204 201 192 183 180 178 180 185 191 198 208 220 229 240 252 260 268 275 279 285 277 277 284 287 291 293 296 300 301
297 295 295 294 290 285 279 267 247 229 219 210 203 198 196 194 186 178 177 179 180 184 191 201 213 223 236 246 255 265 274 280 288 289 288 283 287 291 298 296 300 301 302